Weather History for KJST - March, 2012

Change the Weather History Date:

Saturday, March 24, 2012

  Actual Average Record
Temperature  
Mean Temperature 55 °F 39 °F  
Max Temperature 57 °F 47 °F 83 °F (1966)
Min Temperature 48 °F 30 °F 10 °F (2014)
Degree Days  
Heating Degree Days 10 27  
Month to date heating degree days 738  
Since 1 July heating degree days 5617  
Cooling Degree Days 0 0  
Month to date cooling degree days 0  
Year to date cooling degree days 0  
Growing Degree Days 5 (Base 50)    
Moisture  
Dew Point 54 °F    
Average Humidity 97    
Maximum Humidity 100    
Minimum Humidity 77    
Precipitation  
Precipitation 0.99 in 0.12 in 1.46 in (1953)
Month to date precipitation 2.35  
Year to date precipitation 7.58  
Sea Level Pressure  
Sea Level Pressure 29.90 in    
Wind  
Wind Speed 5 mph (ESE)    
Max Wind Speed 13 mph    
Max Gust Speed 20 mph    
Visibility 4 miles    
Events Fog , Rain , Thunderstorm    
T = Trace of Precipitation, MM = Missing Value Source: NWS Daily Summary

Daily Weather History Graph

Daily Weather History Graph

Search for Another Location

Airport or City:

Trip Planner

Search our weather history database for the weather conditions in past years. The results will help you decide how hot, cold, wet, or windy it might be!

Date:

Astronomy

Mar. 24, 2012 Rise Set
Actual Time 7:11 AM EDT 7:32 PM EDT
Civil Twilight 6:44 AM EDT 7:59 PM EDT
Nautical Twilight 6:12 AM EDT 8:31 PM EDT
Astronomical Twilight 5:39 AM EDT 9:04 PM EDT
Moon 7:49 AM EDT (3/24) 9:50 PM EDT (3/24)
Length of Visible Light 13h 15m
Length of Day
12h 20m
Waxing Crescent, 4% of the Moon is Illuminated
Mar 24
Waxing Crescent
Mar 30
First Quarter
Apr 6
Full
Apr 13
Last Quarter
Apr 21
New

Hourly Weather History & Observations

Time (EDT) Temp. Dew Point Humidity Pressure Visibility Wind Dir Wind Speed Gust Speed Precip Events Conditions
12:04 AM 60.8 °F 53.6 °F 77% 29.96 in 10.0 mi East 6.9 mph - 0.01 in Rain Light Rain
12:54 AM 59.0 °F 55.9 °F 90% 29.96 in 10.0 mi West 8.1 mph - 0.01 in Rain , Thunderstorm Light Thunderstorms and Rain
1:34 AM 57.2 °F 55.4 °F 94% 29.98 in 1.8 mi West 4.6 mph - 0.14 in Rain , Thunderstorm Heavy Thunderstorms and Rain
1:50 AM 57.2 °F 55.4 °F 94% 29.98 in 2.5 mi West 3.5 mph - 0.26 in Rain , Thunderstorm Thunderstorms and Rain
1:54 AM 57.0 °F 55.9 °F 96% 29.95 in 2.5 mi Calm Calm - 0.27 in Rain , Thunderstorm Heavy Thunderstorms and Rain
2:02 AM 57.2 °F 55.4 °F 94% 29.97 in 5.0 mi Calm Calm - 0.01 in Rain , Thunderstorm Light Rain
2:19 AM 55.4 °F 55.4 °F 100% 29.97 in 3.0 mi East 5.8 mph - 0.06 in Rain Rain
2:28 AM 55.4 °F 55.4 °F 100% 29.97 in 3.0 mi East 4.6 mph - 0.09 in Rain Rain
2:31 AM 55.4 °F 55.4 °F 100% 29.97 in 3.0 mi East 4.6 mph - 0.10 in Rain Rain
2:38 AM 55.4 °F 55.4 °F 100% 29.98 in 1.8 mi East 3.5 mph - 0.13 in Rain Rain
2:54 AM 55.9 °F 55.9 °F 100% 29.94 in 2.0 mi ENE 3.5 mph - 0.21 in Rain Rain
3:04 AM 55.4 °F 55.4 °F 100% 29.96 in 2.0 mi ENE 3.5 mph - 0.03 in Rain Rain
3:15 AM 55.4 °F 55.4 °F 100% 29.95 in 1.8 mi ENE 4.6 mph - 0.07 in Rain Rain
3:21 AM 55.4 °F 55.4 °F 100% 29.95 in 3.0 mi East 5.8 mph - 0.08 in Rain Rain
3:54 AM 55.9 °F 55.0 °F 97% 29.89 in 3.0 mi East 8.1 mph - 0.11 in Rain Light Rain
4:04 AM 55.4 °F 55.4 °F 100% 29.92 in 3.0 mi East 6.9 mph - 0.01 in Rain Light Rain
4:12 AM 55.4 °F 55.4 °F 100% 29.91 in 3.0 mi East 4.6 mph - 0.01 in Rain Light Rain
4:23 AM 55.4 °F 55.4 °F 100% 29.92 in 2.0 mi East 6.9 mph - 0.01 in   Overcast
4:33 AM 55.4 °F 55.4 °F 100% 29.91 in 4.0 mi East 4.6 mph - 0.01 in   Overcast
4:54 AM 55.9 °F 55.0 °F 97% 29.88 in 8.0 mi East 3.5 mph - 0.01 in   Overcast
5:22 AM 55.4 °F 55.4 °F 100% 29.94 in 2.5 mi WSW 12.7 mph 19.6 mph 0.03 in Rain Light Rain
5:39 AM 55.4 °F 55.4 °F 100% 29.93 in 3.0 mi Calm Calm - 0.07 in Rain Rain
5:51 AM 55.4 °F 55.4 °F 100% 29.92 in 3.0 mi East 3.5 mph - 0.09 in Rain Rain
5:54 AM 55.0 °F 55.0 °F 100% 29.90 in 3.0 mi East 3.5 mph - 0.09 in Rain Rain
6:54 AM 55.0 °F 55.0 °F 100% 29.91 in 4.0 mi SE 4.6 mph - 0.05 in Rain Light Rain
7:54 AM 55.0 °F 55.0 °F 100% 29.90 in 6.0 mi East 4.6 mph - 0.04 in Rain Light Rain
8:02 AM 55.4 °F 55.4 °F 100% 29.92 in 1.8 mi ENE 4.6 mph - 0.00 in Rain Light Rain
8:11 AM 55.4 °F 55.4 °F 100% 29.92 in 0.5 mi East 4.6 mph - 0.00 in Fog , Rain Light Rain
8:25 AM 55.4 °F 55.4 °F 100% 29.92 in 0.2 mi East 4.6 mph - 0.00 in Fog , Rain Light Rain
8:41 AM 55.4 °F 55.4 °F 100% 29.92 in 0.2 mi East 6.9 mph - 0.00 in Fog , Rain Light Rain
8:54 AM 55.9 °F 55.9 °F 100% 29.90 in 0.2 mi East 4.6 mph - 0.00 in Fog Fog
9:00 AM 55.4 °F 55.4 °F 100% 29.92 in 0.5 mi East 4.6 mph - N/A Fog Fog
9:07 AM 55.4 °F 55.4 °F 100% 29.92 in 2.0 mi East 5.8 mph - N/A   Mostly Cloudy
9:15 AM 55.4 °F 55.4 °F 100% 29.92 in 8.0 mi East 4.6 mph - N/A   Mostly Cloudy
9:23 AM 57.2 °F 55.4 °F 94% 29.92 in 9.0 mi East 4.6 mph - N/A   Scattered Clouds
9:54 AM 57.9 °F 55.9 °F 93% 29.91 in 10.0 mi SE 9.2 mph - N/A   Overcast
10:54 AM 57.0 °F 55.0 °F 93% 29.91 in 10.0 mi SSE 5.8 mph - 0.01 in   Overcast
11:50 AM 57.2 °F 55.4 °F 94% 29.92 in 4.0 mi SE 6.9 mph - 0.02 in Rain Light Rain
11:54 AM 57.0 °F 55.0 °F 93% 29.91 in 4.0 mi SE 5.8 mph - 0.02 in Rain Light Rain
12:41 PM 57.2 °F 55.4 °F 94% 29.91 in 6.0 mi SE 5.8 mph - 0.02 in Rain Light Rain
12:54 PM 57.9 °F 55.9 °F 93% 29.89 in 7.0 mi SE 6.9 mph - 0.02 in Rain Light Rain
1:03 PM 57.2 °F 55.4 °F 94% 29.90 in 7.0 mi SE 4.6 mph - 0.00 in Rain Light Rain
1:43 PM 57.2 °F 55.4 °F 94% 29.89 in 5.0 mi ESE 5.8 mph - 0.02 in Rain Light Rain
1:54 PM 57.0 °F 55.0 °F 93% 29.88 in 7.0 mi ESE 6.9 mph - 0.02 in Rain Light Rain
2:22 PM 57.2 °F 55.4 °F 94% 29.88 in 8.0 mi SE 5.8 mph - 0.00 in Rain Light Rain
2:52 PM 55.4 °F 53.6 °F 94% 29.87 in 10.0 mi SE 5.8 mph - 0.01 in Rain Light Rain
2:54 PM 55.9 °F 54.0 °F 93% 29.87 in 10.0 mi SE 5.8 mph - 0.01 in Rain Light Rain
3:17 PM 55.4 °F 55.4 °F 100% 29.87 in 10.0 mi ESE 5.8 mph - 0.00 in Rain Light Rain
3:54 PM 55.0 °F 54.0 °F 96% 29.86 in 9.0 mi ESE 5.8 mph - 0.02 in Rain Light Rain
4:44 PM 55.4 °F 53.6 °F 94% 29.86 in 2.0 mi SSE 8.1 mph - 0.04 in Rain Light Rain
4:51 PM 55.4 °F 53.6 °F 94% 29.86 in 1.2 mi SSE 12.7 mph - 0.05 in Rain Light Rain
4:54 PM 55.0 °F 54.0 °F 96% 29.86 in 1.2 mi SSE 12.7 mph - 0.06 in Rain Rain
5:05 PM 55.4 °F 53.6 °F 94% 29.86 in 1.2 mi SSE 8.1 mph - 0.02 in Rain Light Rain
5:22 PM 53.6 °F 53.6 °F 100% 29.86 in 2.0 mi ESE 5.8 mph - 0.03 in Rain Light Rain
5:31 PM 53.6 °F 53.6 °F 100% 29.86 in 3.0 mi East 4.6 mph - 0.03 in Rain Light Rain
5:42 PM 53.6 °F 53.6 °F 100% 29.87 in 10.0 mi East 6.9 mph - 0.03 in   Overcast
5:54 PM 54.0 °F 53.1 °F 97% 29.86 in 10.0 mi East 5.8 mph - 0.03 in   Overcast
6:10 PM 53.6 °F 51.8 °F 94% 29.86 in 4.0 mi East 9.2 mph - N/A   Overcast
6:47 PM 51.8 °F 51.8 °F 100% 29.87 in 6.0 mi East 6.9 mph - N/A   Overcast
6:54 PM 52.0 °F 51.1 °F 97% 29.87 in 7.0 mi East 5.8 mph - N/A   Overcast
7:51 PM 51.8 °F 51.8 °F 100% 29.87 in 10.0 mi East 6.9 mph - N/A   Overcast
7:54 PM 51.1 °F 51.1 °F 100% 29.87 in 10.0 mi East 5.8 mph - N/A   Overcast
8:33 PM 51.8 °F 51.8 °F 100% 29.88 in 7.0 mi ESE 3.5 mph - 0.00 in Rain Light Rain
8:54 PM 51.1 °F 50.0 °F 96% 29.87 in 4.0 mi East 4.6 mph - 0.01 in Rain Light Rain
9:15 PM 51.8 °F 50.0 °F 94% 29.86 in 3.0 mi East 3.5 mph - 0.00 in   Overcast
9:23 PM 50.0 °F 50.0 °F 100% 29.85 in 2.0 mi East 5.8 mph - 0.00 in   Overcast
9:54 PM 50.0 °F 50.0 °F 100% 29.86 in 3.0 mi East 6.9 mph - 0.00 in   Overcast
10:07 PM 50.0 °F 50.0 °F 100% 29.86 in 1.8 mi East 5.8 mph - N/A   Overcast
10:44 PM 50.0 °F 50.0 °F 100% 29.86 in 0.5 mi ESE 4.6 mph - N/A Fog Fog
10:54 PM 50.0 °F 50.0 °F 100% 29.87 in 0.5 mi Calm Calm - N/A Fog Fog
11:05 PM 50.0 °F 48.2 °F 94% 29.87 in 2.0 mi Calm Calm - N/A   Overcast
11:13 PM 50.0 °F 50.0 °F 100% 29.87 in 4.0 mi Calm Calm - N/A   Overcast
11:28 PM 50.0 °F 48.2 °F 94% 29.87 in 2.0 mi SSE 4.6 mph - N/A   Overcast
11:36 PM 50.0 °F 48.2 °F 94% 29.87 in 1.2 mi SSE 4.6 mph - N/A   Overcast
11:44 PM 50.0 °F 50.0 °F 100% 29.87 in 0.5 mi South 6.9 mph - N/A Fog Fog
11:52 PM 50.0 °F 50.0 °F 100% 29.87 in 0.2 mi South 5.8 mph - N/A Fog Fog
11:54 PM 48.9 °F 48.9 °F 100% 29.87 in 0.2 mi SSE 6.9 mph - N/A Fog Fog